Flag for Argentina Weather past 2 weeks in Ushuaia, Tierra del Fuego, Argentina

Now
48 °F

Sprinkles. Overcast.


Feels Like: 44 °F
Forecast: N/A
Wind: 9 mph from Southeast

Location: Ushuaia Aerodrome

Current Time: Jan 27, 2015 at 6:18:11 PM

Latest Report: Jan 27, 2015 at 6:00 PM


Visibility: 4 mi

Pressure: 29.65 "Hg

Humidity: 94%

Dew point: 46 °F

Location of UshuaiaLocation

Historic Weather in Ushuaia — Graph

°F

Ushuaia temperature yesterday

Maximum temperature yesterday: 57 °F (at 4:00 PM)
Minimum temperature yesterday: 46 °F (at 3:00 AM)
Average temperature yesterday: 52 °F

Past Weeks' High & Low Weather Summary

 TemperatureHumidityPressure
High75 °F (Jan 22, 11:00 AM)100% (Jan 16, 12:00 AM)29.98 "Hg (Jan 16, 12:00 AM)
Low36 °F (Jan 16, 12:00 AM)19% (Jan 22, 11:00 AM)29.21 "Hg (Jan 15, 8:00 AM)
Average50 °F65%29.65 "Hg
* Reported Jan 12 5:00 PM — Jan 27 5:00 PM, Ushuaia, Weather by CustomWeather, © 2014

Note: Actual official high and low records may vary slightly from our data, if they occured in-between our weather recording intervals... More about our weather records

Advertising

Ushuaia weather history for previous 24 hours

 ConditionsComfort  
Time TempWeatherWind HumidityBarometerVisibility
5:00 PM
Jan 27
50 °FDrizzle. Overcast.14 mph76%29.62 "HgN/A
4:00 PM54 °FScattered showers. More clouds than sun.12 mph72%29.62 "HgN/A
3:00 PM54 °FPartly sunny.15 mph72%29.56 "HgN/A
2:00 PM54 °FPartly sunny.No wind67%29.56 "HgN/A
1:00 PM52 °FPartly sunny.6 mph77%29.56 "HgN/A
12:00 PM50 °FPartly sunny.2 mph88%29.56 "HgN/A
11:00 AM52 °FPartly sunny.2 mph82%29.56 "HgN/A
10:00 AM50 °FPartly sunny.3 mph88%29.53 "HgN/A
9:00 AM48 °FPartly sunny.3 mph87%29.53 "HgN/A
8:00 AM46 °FPartly sunny.8 mph93%29.53 "HgN/A
7:00 AM46 °FPartly sunny.5 mph93%29.53 "HgN/A
6:00 AM46 °FLight rain. More clouds than sun.9 mph93%29.50 "HgN/A
5:00 AM46 °FDrizzle. More clouds than sun.8 mph87%29.50 "Hg5 mi
2:00 AM46 °FRain. Mostly cloudy.7 mph93%29.50 "Hg3 mi
12:00 AM48 °FRain. Mostly cloudy.7 mph87%29.50 "HgN/A
11:00 PM
Jan 26
48 °FRain. Mostly cloudy.8 mph87%29.50 "HgN/A
10:00 PM48 °FRain. Mostly cloudy.16 mph87%29.47 "HgN/A
9:00 PM50 °FRain. Mostly cloudy.21 mph82%29.45 "HgN/A
7:00 PM57 °FPartly sunny.2 mph63%29.45 "HgN/A
6:00 PM57 °FPartly sunny.5 mph59%29.45 "HgN/A
Weather by CustomWeather, © 2014

See weather overviewHow to use our weather pages